Regional Weather Roundup
Issued by NWS Wakefield, VA

Home | Current Version | Previous Version | Text Only | Print | Product List | Glossary Off
Versions: 1 2 3 4 5 6 7 8 9 10 11 12 13 14 15 16 17 18 19 20 21 22 23 24 25 26 27

000
ASUS41 KAKQ 181915
RWRAKQ

REGIONAL WEATHER ROUNDUP
NATIONAL WEATHER SERVICE WAKEFIELD VA
200 PM EST SUN FEB 18 2018

Note: "fair" indicates few or no clouds below 12,000 feet with no
significant weather and/or obstructions to visibility. * = Denotes
station may not report precipitation (e.g., rain,snow,etc.),
thunder or fog.

VAZ042-051-052>054-056-182000-
NORTHERN VIRGINIA

CITY           SKY/WX    TMP DP  RH WIND       PRES   REMARKS
WASH NATIONAL  FAIR      51  31  46 N8        30.40F
DULLES         PTSUNNY   47  31  53 W10       30.39F
FORT BELVOIR   FAIR      51  28  41 N3        30.40F
QUANTICO       FAIR      51  30  44 CALM      30.41F
FREDERICKSBRG* FAIR      51  30  44 E3        30.39F
STAFFORD*      FAIR      51  29  42 W5        30.43F
WARRENTON      FAIR      51  26  38 N3        30.39S
CULPEPER*      FAIR      51  27  39 CALM      30.40F
MANASSAS*      FAIR      49  29  46 W10       30.40F
LEESBURG*      FAIR      45  32  61 W6        30.40F
WINCHESTER     FAIR      45  28  53 SW5       30.39F
FRONT ROYAL*   FAIR      46  30  53 S3        30.37F
LURAY*         FAIR      46  30  53 SE6       30.37F
$$

VAZ048-049-060>072-079>083-182000-
CENTRAL AND SOUTH CENTRAL VIRGINIA

CITY           SKY/WX    TMP DP  RH WIND       PRES   REMARKS
RICHMOND       FAIR      53  33  46 NE3       30.38F
CHESTERFIELD*  FAIR      53  36  52 E7        30.39F
PETERSBURG*    NOT AVBL
HANOVER        FAIR      54  33  45 VRB5      30.39F
TAPPAHANNOCK*  FAIR      52  32  45 NE8G21    30.40F
QUINTON*       FAIR      52  33  48 N10       30.38F
CHARLOTTSVILLE FAIR      53  31  42 E5        30.37F
GORDONSVILLE*  FAIR      50  32  50 S3        30.38F
ORANGE*        FAIR      50  32  50 CALM      30.39F
LOUISA*        FAIR      49  32  52 CALM      30.43S
BUMPASS*       FAIR      51  31  46 SW3       30.38F
FARMVILLE*     FAIR      54  41  62 E6        30.36F
CREWE*         MOCLDY    52  39  61 E6        30.37F
FORT PICKETT*  CLOUDY    53  38  58 S5        30.37F
CHASE CITY*    FAIR      54  39  56 NE6       30.36S
CLARKSVILLE*   FAIR      55  34  44 S3        30.35F
SOUTH HILL*    FAIR      54  40  59 NE5       30.42F
LAWRENCEVILLE* MOCLDY    54  38  55 N5        30.36F
EMPORIA*       FAIR      54  37  54 N7        30.39F
$$

VAZ088>098-182000-
SOUTHEAST VIRGINIA

CITY           SKY/WX    TMP DP  RH WIND       PRES   REMARKS
NORFOLK        FAIR      50  35  56 NE12      30.41S
VIRGINIA BEACH FAIR      50  33  52 NE12      30.40S
NORFOLK NAVAL  FAIR      49  34  56 NE10      30.43S
WEST POINT*    FAIR      54  33  45 N5        30.40F
SALUDA*        FAIR      49  36  60 CALM      30.40F
NEWPORT NEWS   FAIR      49  35  58 E13       30.40F
LANGLEY AFB    FAIR      49  35  58 NE14      30.40F
FORT EUSTIS    FAIR      54  34  48 NW7       30.37F
WILLIAMSBURG*  FAIR      64  37  36 CALM      30.40S
HR EXEC AP*    FAIR      51  34  52 NE6       30.41F
FRANKLIN*      PTSUNNY   54  37  52 NE5       30.39S
US460-WAKEFLD  PTSUNNY   53  38  56 CALM      30.39F
$$

VAZ020-022-025-037-045-182000-
WEST CENTRAL AND SOUTHWEST VIRGINIA

CITY           SKY/WX    TMP DP  RH WIND       PRES   REMARKS
STAUNTON*      FAIR      47  29  50 SW3       30.37F
WAYNESBORO*    FAIR      49  30  48 NW3       30.34F
HOT SPRINGS VA FAIR      40  25  55 E3        30.29F
LYNCHBURG      FAIR      54  26  34 E5        30.34F
DANVILLE       FAIR      57  34  41 NE6       30.34F
SOUTH BOSTON*  FAIR      59  32  35 NE3       30.35F
MARTINSVILLE   FAIR      55  25  30 NE9       30.37S
ROANOKE        FAIR      52  26  36 CALM      30.36F
BLACKSBURG     FAIR      50  29  44 SE6       30.34F
DUBLIN*        FAIR      49  26  41 CALM      30.33F
MARION*        FAIR      52  22  31 CALM      30.30F
HILLSVILLE*    FAIR      49  26  39 SE3       30.29S
RICHLANDS*     FAIR      49  28  43 NE5       30.28F
WISE*          FAIR      48  32  53 CALM      30.28F
ABINGDON*      FAIR      53  30  40 E7        30.27F
$$

MDZ021>025-VAZ099-100-182000-
SOUTHERN MARYLAND AND THE DELMARVA PENINSULA

CITY           SKY/WX    TMP DP  RH WIND       PRES   REMARKS
PATUXENT RIVER FAIR      48  35  60 NE9       30.40F
BAY BRIDGE APT FAIR      45  32  61 CALM      30.41F
LEONARDTOWN    FAIR      48  30  49 N5        30.41F
DOVER          FAIR      46  30  54 NW10G18   30.39F
GEORGETOWN     FAIR      49  28  44 VRB5      30.40F
EASTON         MOSUNNY   48  30  49 NW9       30.44F
CAMBRIDGE      MOSUNNY   46  30  53 N7        30.41F
SALISBURY      FAIR      48  32  53 NW9       30.40F
OCEAN CITY     FAIR      48  31  51 NW13G18   30.40F
WALLOPS ISLAND FAIR      53  33  46 N8        30.41S
ACCOMACK*      FAIR      49  32  52 N12       30.41S
$$

NCZ012>017-030>032-182000-
NORTH CENTRAL AND EASTERN NORTH CAROLINA

CITY           SKY/WX    TMP DP  RH WIND       PRES   REMARKS
ROANOKE RAPIDS FAIR      55  41  58 SE5       30.37F
RALEIGH        FAIR      58  34  40 NE7       30.34F
ELIZABETH CITY FAIR      52  39  61 NE16      30.40S
AHOSKIE*       PTSUNNY   54  39  57 E5        30.38F HAZE
EDENTON*       FAIR      56  39  53 N8        30.39F
CURRITUCK*     FAIR      48  33  56 NE13G20   30.42S
KILL DEVIL HLS FAIR      48  35  62 NE7G17    30.40S
MANTEO         FAIR      49  35  58 NE16      30.41S
CAPE HATTERAS  FAIR      52  37  56 NE16G31   30.38S
TARBORO*       NOT AVBL
GOLDSBORO      FAIR      63  35  35 E10       30.32F
WASHINGTON     FAIR      58  41  51 E13       30.37S
GREENVILLE     FAIR      59  37  44 E7        30.36S
NEW BERN       FAIR      58  43  57 E15       30.36F
WILMINGTON     CLOUDY    60  45  57 E9        30.34R
$$

VAZ048-182000-
ELSEWHERE

CITY           SKY/WX    TMP DP  RH WIND       PRES   REMARKS
HARRISBURG PA  PTSUNNY   42  25  50 W6        30.37F
BALTIMORE      PTSUNNY   46  33  60 W12       30.39F
ANNAPOLIS      FAIR      47  33  58 NW6       30.40F
ANDREWS AFB    MOSUNNY   34  33  96 N7        30.40F
PHILADELPHIA   FAIR      44  24  45 NW9       30.39S
HENDERSON NC   FAIR      55  34  45 E7        30.35F
GREENSBORO     FAIR      56  31  38 E9        30.33F
ROCKY MOUNT    FAIR      59  41  51 NE12      30.35F
$$

VAZ100-182000-
MARINE

STATION/POSITION TIME  TEMP    WIND        PRES    WAVE   SWELL
                       AIR SEA DIR/SP/G            HT/PER HT/PER
                 (UTC) (F)     (DEG/KT/KT) (MB)    (FT/S) (FT/S)
BRANDYWINE LGT   1848   40     340/ 11/ 12 1029.8F
CAPE MAY NJ      1848   43 40  320/ 11/ 15 1029.0F
LEWES DE         1848   40 42  360/ 12/ 15 1029.4F
15NM E FENWICK I 1850   41 42  320/ 16/ 19 1029.8S   4/ 4   2/ 8
OCEAN-CITY-INLET 1848   46 41  340/ 10/ 11 1029.6F
WACHAPREAGUE VA  1848   47 49   30/ 13/ 18 1029.4F
THOMAS POINT MD  1900   42 38  110/  4/  5   N/A
GOOSES REEF MD   1900   42 40  140/  4/  6 1030.4    0
COVE POINT MD    1848   42      50/  4/  5 1030.6F
SOLOMONS ISLAND  1848   43 40  100/  9/ 11 1029.3F
BISHOPS HEAD MD  1848   46 45  300/  9/ 11 1030.1F
POTOMAC MD       1900   44     280/  8/ 10 1029.2    0
CAMBRIDGE MD     1848   47 45              1030.7F
LEWISETTA VA     1848   47 45  360/  9/ 10 1029.8F
RAPPAHANNOCK LGT 1848           20/ 13/ 15 1030.2F
STINGRAY PT      1900   43 42   80/ 12/ 14 1031.0    1/ 2
YORK RVR RNG VA  1848   43      70/ 12/ 15 1029.9F
YORKTOWN VA      1848   46 45   90/ 11/ 13 1029.0F
DOMINION TERM VA 1848   50      20/  2/  8 1029.9F
KIPTOPEKE VA     1848      43   10/  8/ 13   N/A
CAPE HENRY VA    1848   47      70/  2/  5   N/A
S CRANEY ISL VA  1848   46      40/ 16/ 19 1029.5F
CAPE HENRY BUOY  1900      43                N/A     3/ 6
1ST LANDING BUOY 1900   45 44   30/ 12/ 16 1029.7    2/ 3
CAPE CHARLES BUO 1821      43                N/A     3/ 7
64NM E OF VA BCH 1850   45 50   10/ 19/ 23 1029.5R   6/ 6   2/ 9
DUCK PIER NC     1848   44 45   30/ 15/ 18 1029.3F
44100 DUCK FRF   1845      45                N/A     5/ 6
44056 DUCK FRF   1900      45                N/A     4/ 6
OREGON INLET NC  1836   47 48   20/ 18/ 22 1029.3S
HATTERAS NC      1848   49 56   30/ 17/ 25 1028.6S
DIAMOND SHLS NC  1850   52 72   20/ 23/ 33 1028.7    6/ 8   2/14
CAPE LOOKOUT NC  1900           50/ 28/ 30 1028.4F
$$




USA.gov is the U.S. government's official web portal to all federal, state and local government web resources and services.